Hourly Data Report for August 16, 2020

LYTTON RCS
BRITISH COLUMBIA
Current Station Operator: ECCC - MSC

50°13'28.000" N
121°34'55.000" W
225.00 m
1114746
71765
VLY

Download Data

Hourly Data (August 2020)
Hourly Data Report for August 16, 2020
TIME Temp Definition
°C
Dew Point Definition
°C
Rel Hum Definition
%
Wind Dir Definition
10's deg

Wind Spd Definition
km/h
Visibility Definition
km
Stn Press Definition
kPa
Hmdx Definition


Wind Chill Definition


Weather Definition


00:00 22.6 7.4 38 17 6   98.68     LegendNANA
01:00 20.9 7.9 43 18 10   98.73     LegendNANA
02:00 19.3 8.2 48 17 4   98.74     LegendNANA
03:00 17.9 8.1 53 16 7   98.75     LegendNANA
04:00 16.2 8.1 59   0   98.80     LegendNANA
05:00 15.0 8.5 65 0 1   98.85     LegendNANA
06:00 14.1 8.4 69   0   98.90     LegendNANA
07:00 14.5 9.1 70 15 9   98.93     LegendNANA
08:00 17.9 8.0 52 14 9   98.89     LegendNANA
09:00 22.7 6.9 36 17 3   98.83     LegendNANA
10:00 26.1 5.3 26 22 2   98.74 25   LegendNANA
11:00 29.7 5.7 22 18 6   98.64 29   LegendNANA
12:00 32.6 6.8 20 21 3   98.51 33   LegendNANA
13:00 35.7 6.0 16 19 4   98.38 35   LegendNANA
14:00 38.1 5.7 14 32 2   98.24 38   LegendNANA
15:00 40.7 5.7 12 18 25   98.15 40   LegendNANA
16:00 40.6 6.1 12 17 21   98.13 40   LegendNANA
17:00 39.4 4.8 12 18 27   98.12 39   LegendNANA
18:00 37.4 5.1 14 17 22   98.15 37   LegendNANA
19:00 34.8 6.0 17 21 8   98.20 34   LegendNANA
20:00 32.4 7.3 21 17 15   98.28 33   LegendNANA
21:00 30.2 8.0 25 15 6   98.32 31   LegendNANA
22:00 30.1 9.1 27 16 15   98.39 31   LegendNANA
23:00 30.0 10.1 29 19 25   98.48 31   LegendNANA

Notes on Data Quality.

Legend

  • E = Estimated
  • M = Missing
  • NA = Not Available*
  • [empty] = Indicates an unobserved value
Date modified: